EHI
0 0 0 0 0 0 0 0 0 0 0 0 0 0 0 0 0 0 0 0 0 0 0 0 0 0 0 0 1 2 2 1 0 0 0 0 0 0 0 0 0 0 0 0
0 0 0 0 0 0 0 0 0 0 0 0 0 0 0 0 0 0 0 0 0 0 0 0 0 0 0 0 0 1 1 0 0 0 0 0 0 0 0 0 0 0 0 0
0 0 0 0 0 0 0 0 0 0 0 0 0 0 0 0 0 0 0 0 0 0 0 0 0 0 0 0 0 0 0 0 0 0 0 0 0 0 0 0 0 0 0 0
0 0 0 0 0 0 0 0 0 0 0 0 0 0 0 0 0 0 0 0 0 0 0 0 0 0 0 0 0 0 0 0 0 0 0 0 0 0 0 0 0 0 0 0
0 0 0 0 0 0 0 0 0 0 0 0 0 0 0 0 0 0 0 0 0 0 0 0 0 0 0 0 0 0 0 0 0 0 0 0 0 0 0 0 0 0 0 0
0 0 0 0 0 0 0 0 0 0 0 0 0 0 0 0 0 0 0 0 0 0 0 0 0 0 0 0 0 0 0 0 0 0 0 0 0 0 0 0 0 0 0 0
0 0 0 0 0 0 0 0 0 0 0 0 0 0 0 0 0 0 0 0 0 0 0 0 0 0 0 0 0 0 0 0 0 0 0 0 0 0 0 0 0 0 0 0
0 0 0 0 0 0 0 0 0 0 0 0 0 0 0 0 0 0 0 0 0 0 0 0 0 0 0 0 0 0 0 0 0 0 0 0 0 0 0 0 0 0 0 0
0 0 0 0 0 0 0 0 0 0 0 0 0 0 0 0 0 0 0 0 0 0 0 0 0 0 0 0 0 0 0 0 0 0 0 0 0 0 0 0 0 0 0 0
0 0 0 0 0 0 0 0 0 0 0 0 0 0 0 0 0 0 0 0 0 0 0 0 0 0 0 0 0 0 0 0 0 0 0 0 0 0 0 0 0 0 0 0
0 0 0 0 0 0 0 0 0 0 0 0 0 0 0 0 0 0 0 0 0 0 0 0 0 0 0 0 0 0 0 0 0 0 0 0 0 0 0 0 0 0 0 0
0 0 0 0 0 0 0 0 0 0 0 0 0 0 0 0 0 0 0 0 0 0 0 0 0 0 0 0 0 0 0 0 0 0 0 0 0 0 0 0 0 0 0 0
0 0 0 0 0 0 0 0 0 0 0 0 0 0 0 0 0 0 0 0 0 0 0 0 0 0 0 0 0 0 0 0 0 0 0 0 0 0 0 0 0 0 0 0
0 0 0 0 0 0 0 0 0 0 0 0 0 0 0 0 0 0 0 0 0 0 0 0 0 0 0 0 0 0 0 0 0 0 0 0 0 0 0 0 0 0 0 0
0 0 0 0 0 0 0 0 0 0 0 0 0 0 0 0 0 0 0 0 0 0 0 0 0 0 0 0 0 0 0 0 0 0 0 0 0 0 0 0 0 0 0 0
0 0 0 0 0 0 0 0 0 0 0 0 0 0 0 0 0 0 0 0 0 0 0 0 0 0 0 0 0 0 0 0 0 0 0 0 0 0 0 0 0 0 0 0
0 0 0 0 0 0 0 0 0 0 0 0 0 0 0 0 0 0 0 0 0 0 0 0 0 0 0 0 0 0 0 0 0 0 0 0 0 0 0 0 0 0 0 0
0 0 0 0 0 0 0 0 0 0 0 0 0 0 0 0 0 0 0 0 0 0 0 0 0 0 0 0 0 0 0 0 0 0 0 0 0 0 0 0 0 0 0 0
0 0 0 0 0 0 0 0 0 0 0 0 0 0 0 0 0 0 0 0 0 0 0 0 0 0 0 0 0 0 0 0 0 0 0 0 0 0 0 0 0 0 0 0
0 0 0 0 0 0 0 0 0 0 0 0 0 0 0 0 0 0 0 0 0 0 0 0 0 0 0 0 0 0 0 0 0 0 0 0 0 0 0 0 0 0 0 0
0 0 0 0 0 0 0 0 0 0 0 0 0 0 0 0 0 0 0 0 0 0 0 0 0 0 0 0 0 0 0 0 0 0 0 0 0 0 0 0 0 0 0 0
0 0 0 0 0 0 0 0 0 0 0 0 0 0 0 0 0 0 0 0 0 0 0 0 0 0 0 0 0 0 0 0 0 0 0 0 0 0 0 0 0 0 0 0
0 0 0 0 0 0 0 0 0 0 0 0 0 0 0 0 0 0 0 0 0 0 0 0 0 0 0 0 0 0 0 0 0 0 0 0 0 0 0 0 0 0 0 0
0 0 0 0 0 0 0 0 0 0 0 0 0 0 0 0 0 0 0 0 0 0 0 0 0 0 0 0 0 0 0 0 0 0 0 0 0 0 0 0 0 0 0 0
0 0 0 0 0 0 0 0 0 0 0 0 0 0 0 0 0 0 0 0 0 0 0 0 0 0 0 0 0 0 0 0 0 0 0 0 0 0 0 0 0 0 0 0
0 0 0 0 0 0 0 0 0 0 0 0 0 0 0 0 0 0 0 0 0 0 0 0 0 0 0 0 0 0 0 0 0 0 0 0 0 0 0 0 0 0 0 0
0 0 0 0 0 0 0 0 0 0 0 0 0 0 0 0 0 0 0 0 0 0 0 0 0 0 0 0 0 0 0 0 0 0 0 0 0 0 0 0 0 0 0 0
Wind_Speed
5 4 3 4 4 7 7 8 8 8 8 10 7 8 8 7 6 7 7 8 10 11 10 9 9 9 9 9 8 8 8 8 9 7 6 6 6 6 5 5 6 5 5 5
2 2 3 3 4 6 6 5 6 5 8 7 4 2 3 5 7 9 9 10 10 9 9 10 11 11 9 9 8 8 9 9 8 6 6 7 7 6 5 6 5 5 6 6
3 1 1 5 6 5 5 5 6 8 8 2 1 3 5 6 7 9 10 9 9 10 11 11 11 10 11 10 8 9 9 8 7 7 7 8 7 6 6 7 5 6 6 7
1 2 5 8 2 3 4 4 4 5 5 3 5 4 2 2 5 6 6 7 8 8 9 8 8 8 7 7 8 8 8 8 7 8 8 7 6 7 7 5 5 6 7 7
3 2 5 5 2 3 3 4 3 4 4 3 2 2 3 2 1 3 4 5 6 7 6 6 7 7 6 6 7 7 8 8 8 8 7 7 7 8 6 5 6 6 6 7
4 3 6 6 1 2 3 4 2 2 2 1 2 2 3 4 2 2 2 1 1 3 4 4 4 6 7 6 6 8 9 8 7 7 7 8 8 7 5 5 7 6 7 8
4 4 7 4 1 3 3 5 1 1 1 2 2 2 3 3 2 2 3 3 3 4 4 3 4 6 5 5 7 8 5 5 4 5 6 6 5 4 4 5 5 6 7 8
4 3 7 1 2 4 5 1 1 1 1 2 1 1 2 3 3 5 6 5 4 4 3 3 5 6 5 5 4 2 3 3 3 3 3 3 3 4 4 5 5 6 6 8
7 7 4 2 2 1 2 1 1 1 1 2 2 2 3 4 5 6 6 4 4 4 5 4 4 4 4 2 2 3 3 2 1 1 1 2 3 4 3 3 4 5 5 7
3 5 4 3 2 1 1 2 1 2 2 3 4 4 5 5 6 6 6 5 4 6 6 5 4 3 2 2 3 4 3 1 1 0 0 1 2 2 3 4 4 5 6 7
3 4 3 2 0 1 3 3 4 4 5 6 7 6 6 6 6 6 6 5 5 6 5 4 4 4 3 3 4 5 3 2 2 1 1 2 2 3 4 5 6 6 6 7
6 5 3 1 1 4 5 5 5 6 7 6 7 7 7 6 5 5 5 5 5 6 5 4 4 3 3 3 4 4 3 2 1 1 1 2 3 4 5 8 10 11 13 11
3 1 3 3 4 5 6 6 6 7 7 7 6 6 7 5 5 5 5 5 5 4 4 3 3 3 2 3 4 4 2 1 0 1 1 2 3 4 6 7 8 10 12 12
1 4 4 3 4 6 9 9 9 9 7 6 5 5 6 6 5 5 4 3 3 4 4 3 3 2 2 1 3 2 1 0 1 1 2 2 3 4 4 6 7 7 8 11
6 5 6 7 8 8 8 8 10 8 6 6 5 5 5 5 4 3 2 2 3 4 3 2 2 2 2 1 2 1 0 1 1 2 2 3 4 4 5 6 6 7 8 9
8 10 11 12 11 9 9 8 8 5 5 5 4 4 3 3 3 2 1 2 2 1 0 0 1 2 1 0 0 0 1 4 3 2 3 3 4 4 5 6 6 7 7 8
9 8 8 9 8 8 7 6 5 3 3 3 2 2 2 3 2 2 1 1 0 1 1 2 3 3 1 1 1 2 2 3 5 3 3 4 4 5 6 6 7 7 8 9
8 7 7 7 6 6 5 4 3 3 1 1 1 1 1 1 1 2 2 2 1 2 3 4 3 3 2 2 2 2 2 3 3 4 4 5 5 6 6 7 8 9 8 9
8 8 7 6 5 4 3 2 1 1 1 1 1 1 2 2 3 3 2 1 2 4 5 4 4 3 4 4 3 2 3 4 4 4 5 6 7 6 6 7 8 9 9 9
8 7 6 5 4 3 1 1 1 1 2 1 0 1 2 3 3 3 2 3 5 5 5 5 4 3 4 4 3 2 3 4 5 5 5 6 6 7 7 7 8 9 9 8
6 4 3 2 2 1 2 2 2 2 3 2 1 2 3 4 3 2 2 4 6 5 5 6 4 4 3 3 3 3 3 4 5 5 5 6 7 7 8 8 8 9 9 9
4 3 2 2 2 3 3 3 3 3 3 3 3 3 3 4 4 3 4 5 6 6 4 3 4 5 5 4 3 3 4 5 5 5 5 6 6 7 8 8 9 9 9 9
2 2 3 3 3 3 4 3 3 3 3 3 4 4 4 4 3 3 5 5 4 6 4 4 5 6 6 3 2 3 4 5 5 5 6 6 6 7 8 9 8 9 8 8
2 3 3 3 2 2 3 4 4 3 3 4 4 4 3 3 3 4 5 7 7 6 4 4 5 5 4 2 3 3 4 5 5 6 6 6 6 6 7 8 8 8 8 10
2 2 3 3 3 2 3 4 4 4 4 4 5 4 3 2 3 4 4 5 5 5 3 4 5 5 3 3 3 4 4 5 5 5 5 6 6 7 7 7 8 8 8 8
2 2 2 2 2 2 2 2 3 3 4 4 4 4 4 3 3 3 3 3 4 4 3 3 3 3 3 3 4 4 4 5 5 5 6 6 7 7 7 8 10 8 8 8
3 2 2 3 3 3 2 2 3 3 3 4 5 5 5 5 4 4 4 3 3 3 3 3 3 3 3 3 4 4 3 4 4 5 5 6 6 6 7 9 8 7 8 7
Wind_Direction
229 226 192 211 205 178 187 190 192 227 228 249 240 230 227 219 204 188 192 195 198 200 197 190 187 189 191 192 187 180 180 190 203 205 205 207 210 215 216 219 227 229 234 242
269 239 197 230 239 201 206 203 216 243 258 248 253 231 230 217 199 199 202 202 200 197 191 191 193 192 190 193 187 176 185 199 202 195 198 209 216 215 217 226 230 228 234 241
248 305 81 255 232 205 205 206 192 218 242 273 262 238 232 221 207 210 209 204 196 192 192 193 194 189 191 192 177 179 192 199 197 196 203 212 214 213 220 226 226 231 237 238
173 112 225 246 242 190 202 231 219 243 266 251 235 244 246 220 198 207 206 202 203 198 194 189 183 182 181 168 173 186 196 201 199 199 208 210 207 218 224 220 222 231 238 238
138 190 269 284 232 168 183 264 219 232 274 273 276 55 4 334 242 213 215 212 202 194 190 179 172 170 157 166 174 185 201 208 206 200 204 206 212 222 220 216 226 229 235 237
141 172 235 251 178 137 120 287 254 192 272 312 83 84 290 317 324 8 28 43 140 136 127 149 163 147 154 173 180 200 206 207 202 195 200 210 218 223 218 218 232 236 242 241
165 210 258 258 174 112 164 247 284 152 156 104 113 191 264 321 19 63 63 58 79 105 124 144 135 138 158 174 202 211 196 186 186 194 205 216 221 222 224 228 238 243 251 256
149 195 256 282 132 177 213 215 133 115 125 126 135 357 1 18 37 60 65 60 75 95 97 94 122 142 162 199 216 167 155 172 193 202 212 218 220 234 233 231 241 252 259 268
185 213 245 259 227 237 164 169 192 140 142 126 95 60 41 40 40 48 56 61 74 96 89 74 100 132 155 197 125 127 136 169 209 209 209 217 225 242 246 239 245 258 260 266
236 263 264 261 238 220 152 162 143 127 115 102 92 72 59 55 52 56 58 63 72 87 85 73 74 96 119 115 119 116 117 118 103 87 307 251 231 234 243 251 256 261 263 266
250 270 306 335 331 100 93 100 94 86 88 96 96 83 75 65 58 62 63 62 74 86 89 84 80 77 74 87 104 103 98 86 69 41 326 303 288 262 258 254 247 252 263 262
224 227 183 226 29 93 94 87 92 92 75 69 90 99 91 78 67 71 72 71 77 82 85 80 80 71 57 70 91 96 83 64 45 4 321 305 302 301 274 264 275 266 256 255
242 128 121 107 78 83 90 86 85 88 92 86 75 87 90 83 71 75 74 74 80 83 84 83 80 66 48 68 85 89 87 60 6 347 326 315 308 305 308 308 298 288 278 271
125 102 87 74 86 91 94 91 85 76 72 78 82 84 89 86 78 75 74 76 87 86 75 70 68 43 12 83 102 101 96 20 336 301 300 298 298 297 295 298 306 306 299 290
37 75 102 91 78 73 77 86 83 73 63 57 63 78 90 96 93 85 75 84 83 76 65 63 58 356 343 74 102 91 4 299 290 287 288 291 295 295 292 293 292 294 300 302
73 74 80 80 78 74 70 70 73 64 60 58 58 58 73 98 100 86 59 79 94 87 303 336 287 285 306 31 99 306 286 293 300 290 295 298 295 292 293 294 295 296 296 298
85 78 78 79 76 75 72 72 71 63 57 61 62 64 73 78 68 42 352 339 102 260 267 255 259 277 291 254 242 264 280 294 306 302 288 287 289 289 291 292 293 294 292 291
88 96 98 98 94 84 71 66 66 62 46 23 50 66 80 120 198 257 282 313 329 313 286 258 258 271 270 251 240 253 269 280 287 289 290 290 290 288 290 290 291 293 295 297
81 83 81 80 83 90 89 80 67 35 360 13 54 263 257 251 247 259 280 298 286 282 279 273 272 265 264 261 255 251 270 282 289 291 291 293 295 294 293 293 293 294 295 297
70 70 72 70 66 71 65 11 360 354 332 322 297 302 296 282 275 277 279 268 253 246 262 276 272 261 262 269 271 262 275 283 289 293 296 298 299 299 298 297 298 299 299 297
65 61 61 59 36 6 342 331 326 315 317 319 281 271 277 283 282 269 264 277 276 265 266 269 263 259 260 266 276 268 275 281 285 288 293 296 299 301 301 301 302 302 300 299
40 24 358 340 332 325 323 324 318 310 314 316 301 286 286 290 292 281 254 246 269 288 285 270 267 267 275 278 272 275 280 283 286 288 290 293 297 299 301 303 302 302 301 301
345 328 321 319 313 305 320 330 330 317 306 303 297 289 279 273 268 265 284 280 281 287 281 269 275 283 290 284 272 274 279 282 284 284 286 290 293 295 297 299 299 299 300 303
325 324 324 324 335 345 336 326 328 321 310 302 294 289 282 288 289 261 256 287 299 296 286 283 290 294 298 277 273 277 281 283 283 285 288 290 293 296 298 300 301 302 301 303
328 335 347 356 355 329 310 318 331 332 331 322 317 314 300 257 261 288 299 301 308 310 304 302 302 302 299 285 283 286 289 289 291 293 291 294 296 299 301 303 304 303 303 305
353 344 333 321 301 297 306 317 316 313 318 318 316 316 318 311 297 299 308 316 319 316 309 310 316 313 305 299 298 298 298 301 301 298 297 299 301 303 303 305 308 308 308 310
358 351 343 339 332 323 315 308 302 303 305 302 303 308 314 316 319 322 323 321 321 320 317 316 317 314 310 310 311 314 317 318 318 315 312 310 310 308 307 309 309 309 311 314